owner,sensor,date,latitude,longitude,vertical_datum,wind_speed,wind_to_direction,wind_speed_of_gust,qcFlag 
TABS,ioos:station:wmo:42045:1,2013-04-01T00:00:00Z,26.2168,-96.4998,4.0,5.119472629,134.8420408,5.67,'11111222,11111222,11111222' 
TABS,ioos:station:wmo:42045:1,2013-04-01T00:30:00Z,26.2168,-96.4998,4.0,5.730977229,138.4663985,6.47,'11111222,11111222,11111222' 
TABS,ioos:station:wmo:42045:1,2013-04-01T01:00:00Z,26.2168,-96.4998,4.0,5.588819196,129.7008898,6.24,'11111222,11111222,11111222' 
TABS,ioos:station:wmo:42045:1,2013-04-01T01:30:00Z,26.2168,-96.4998,4.0,6.524913793,138.5417833,7.47,'11111222,11111222,11111222' 
TABS,ioos:station:wmo:42045:1,2013-04-01T02:00:00Z,26.2168,-96.4998,4.0,5.385164807,111.8017794,6.18,'11111222,11111222,11111222' 
TABS,ioos:station:wmo:42045:1,2013-04-01T02:30:00Z,26.2168,-96.4998,4.0,3.97102002,88.7009078,4.37,'11111222,11111222,11111222' 
TABS,ioos:station:wmo:42045:1,2013-04-01T03:00:00Z,26.2168,-96.4998,4.0,4.244384525,76.09432968,4.97,'11111222,11111222,11111222' 
TABS,ioos:station:wmo:42045:1,2013-04-01T03:30:00Z,26.2168,-96.4998,4.0,3.911342481,79.83887992,4.42,'11111222,11111222,11111222' 
TABS,ioos:station:wmo:42045:1,2013-04-01T04:00:00Z,26.2168,-96.4998,4.0,3.966787113,63.49918486,4.93,'11111222,11111222,11111222' 
TABS,ioos:station:wmo:42045:1,2013-04-01T04:30:00Z,26.2168,-96.4998,4.0,4.79116896,49.99505233,5.53,'11111222,11111222,11111222' 
TABS,ioos:station:wmo:42045:1,2013-04-01T05:00:00Z,26.2168,-96.4998,4.0,5.040099205,96.26527495,6.03,'11111222,11111222,11111222' 
TABS,ioos:station:wmo:42045:1,2013-04-01T05:30:00Z,26.2168,-96.4998,4.0,5.151019317,110.3350999,6.31,'11111222,11111222,11111222' 
TABS,ioos:station:wmo:42045:1,2013-04-01T06:00:00Z,26.2168,-96.4998,4.0,7.693666226,117.7311489,8.85,'11111222,11111222,11111222' 
TABS,ioos:station:wmo:42045:1,2013-04-01T06:30:00Z,26.2168,-96.4998,4.0,7.194588244,127.602914,8.66,'11111222,11111222,11111222' 
TABS,ioos:station:wmo:42045:1,2013-04-01T07:00:00Z,26.2168,-96.4998,4.0,6.891480247,118.6108137,7.79,'11111222,11111222,11111222' 
TABS,ioos:station:wmo:42045:1,2013-04-01T07:30:00Z,26.2168,-96.4998,4.0,6.76701559,118.800019,8.21,'11111222,11111222,11111222' 
TABS,ioos:station:wmo:42045:1,2013-04-01T08:00:00Z,26.2168,-96.4998,4.0,6.384637813,112.4683653,7.33,'11111222,11111222,11111222' 
TABS,ioos:station:wmo:42045:1,2013-04-01T08:30:00Z,26.2168,-96.4998,4.0,5.174243906,114.1877179,6.18,'11111222,11111222,11111222' 
TABS,ioos:station:wmo:42045:1,2013-04-01T09:00:00Z,26.2168,-96.4998,4.0,4.992193906,126.3652357,5.74,'11111222,11111222,11111222' 
TABS,ioos:station:wmo:42045:1,2013-04-01T09:30:00Z,26.2168,-96.4998,4.0,4.993525808,131.6719774,5.72,'11111222,11111222,11111222' 
TABS,ioos:station:wmo:42045:1,2013-04-01T10:00:00Z,26.2168,-96.4998,4.0,4.319085551,130.587232,4.92,'11111222,11111222,11111222' 
TABS,ioos:station:wmo:42045:1,2013-04-01T10:30:00Z,26.2168,-96.4998,4.0,4.060603403,125.8824743,4.43,'11111222,11111222,11111222' 
TABS,ioos:station:wmo:42045:1,2013-04-01T11:00:00Z,26.2168,-96.4998,4.0,4.329260907,129.0941884,4.95,'11111222,11111222,11111222' 
TABS,ioos:station:wmo:42045:1,2013-04-01T11:30:00Z,26.2168,-96.4998,4.0,3.760053191,126.5654711,4.23,'11111222,11111222,11111222' 
TABS,ioos:station:wmo:42045:1,2013-04-01T12:00:00Z,26.2168,-96.4998,4.0,3.100983715,123.0242112,3.54,'11111222,11111222,11111222' 
TABS,ioos:station:wmo:42045:1,2013-04-01T12:30:00Z,26.2168,-96.4998,4.0,2.835507009,122.1770802,3.18,'11111222,11111222,11111222' 
TABS,ioos:station:wmo:42045:1,2013-04-01T13:00:00Z,26.2168,-96.4998,4.0,2.443112769,114.6772264,2.92,'11111222,11111222,11111222' 
TABS,ioos:station:wmo:42045:1,2013-04-01T13:30:00Z,26.2168,-96.4998,4.0,2.986134625,95.95919755,3.38,'11111222,11111222,11111222' 
TABS,ioos:station:wmo:42045:1,2013-04-01T14:00:00Z,26.2168,-96.4998,4.0,2.7761304,82.13218407,3.06,'11111222,11111222,11111222' 
TABS,ioos:station:wmo:42045:1,2013-04-01T14:30:00Z,26.2168,-96.4998,4.0,2.134689673,83.27407771,2.52,'11111222,11111222,11111222' 
TABS,ioos:station:wmo:42045:1,2013-04-01T15:00:00Z,26.2168,-96.4998,4.0,2.330772404,72.26431405,2.95,'11111222,11111222,11111222' 
TABS,ioos:station:wmo:42045:1,2013-04-01T15:30:00Z,26.2168,-96.4998,4.0,2.739233469,67.46021579,3.1,'11111222,11111222,11111222' 
TABS,ioos:station:wmo:42045:1,2013-04-01T16:00:00Z,26.2168,-96.4998,4.0,3.439534852,81.30409654,4.49,'11111222,11111222,11111222' 
TABS,ioos:station:wmo:42045:1,2013-04-01T16:30:00Z,26.2168,-96.4998,4.0,2.490983741,79.59189211,3.06,'11111222,11111222,11111222' 
TABS,ioos:station:wmo:42045:1,2013-04-01T17:00:00Z,26.2168,-96.4998,4.0,2.577692767,70.51027133,3.13,'11111222,11111222,11111222' 
TABS,ioos:station:wmo:42045:1,2013-04-01T17:30:00Z,26.2168,-96.4998,4.0,2.583273118,87.11502875,3.12,'11111222,11111222,11111222' 
TABS,ioos:station:wmo:42045:1,2013-04-01T18:00:00Z,26.2168,-96.4998,4.0,3.070260575,90.74690175,3.57,'11111222,11111222,11111222' 
TABS,ioos:station:wmo:42045:1,2013-04-01T18:30:00Z,26.2168,-96.4998,4.0,2.51795552,117.1759976,3.03,'11111222,11111222,11111222' 
TABS,ioos:station:wmo:42045:1,2013-04-01T19:00:00Z,26.2168,-96.4998,4.0,2.456928977,112.4946635,2.73,'11111222,11111222,11111222' 
TABS,ioos:station:wmo:42045:1,2013-04-01T19:30:00Z,26.2168,-96.4998,4.0,2.153717716,103.9721095,2.64,'11111222,11111222,11111222' 
TABS,ioos:station:wmo:42045:1,2013-04-01T20:00:00Z,26.2168,-96.4998,4.0,1.930621662,104.3965241,2.33,'11111222,11111222,11111222' 
TABS,ioos:station:wmo:42045:1,2013-04-01T20:30:00Z,26.2168,-96.4998,4.0,2.126805116,94.58507307,2.51,'11111222,11111222,11111222' 
TABS,ioos:station:wmo:42045:1,2013-04-01T21:00:00Z,26.2168,-96.4998,4.0,2.581317493,79.73446263,3.09,'11111222,11111222,11111222' 
TABS,ioos:station:wmo:42045:1,2013-04-01T21:30:00Z,26.2168,-96.4998,4.0,3.030066006,90.3786045,3.39,'11111222,11111222,11111222' 
TABS,ioos:station:wmo:42045:1,2013-04-01T22:00:00Z,26.2168,-96.4998,4.0,2.992524018,81.54457118,3.62,'11111222,11111222,11111222' 
TABS,ioos:station:wmo:42045:1,2013-04-01T22:30:00Z,26.2168,-96.4998,4.0,3.424207938,101.1134355,4.27,'11111222,11111222,11111222' 
TABS,ioos:station:wmo:42045:1,2013-04-01T23:00:00Z,26.2168,-96.4998,4.0,3.303407332,103.6580315,3.77,'11111222,11111222,11111222' 
TABS,ioos:station:wmo:42045:1,2013-04-01T23:30:00Z,26.2168,-96.4998,4.0,4.058817562,97.93086867,4.58,'11111222,11111222,11111222' 
TABS,ioos:station:wmo:42045:1,2013-04-02T13:00:00Z,26.2168,-96.4998,4.0,11.96,138.3,14.85,'1111122,1111122,1111122' 
TABS,ioos:station:wmo:42045:1,2013-04-02T13:30:00Z,26.2168,-96.4998,4.0,8.92,134.7,10.7,'1111122,1111122,1111122' 
TABS,ioos:station:wmo:42045:1,2013-04-02T14:00:00Z,26.2168,-96.4998,4.0,6.98,151.3,11.63,'1111122,1111122,1111122' 
TABS,ioos:station:wmo:42045:1,2013-04-02T14:30:00Z,26.2168,-96.4998,4.0,7.86,130.6,9.54,'1111122,1111122,1111122' 
TABS,ioos:station:wmo:42045:1,2013-04-02T15:00:00Z,26.2168,-96.4998,4.0,6.64,160.4,8.33,'1111122,1111122,1111122' 
TABS,ioos:station:wmo:42045:1,2013-04-02T15:30:00Z,26.2168,-96.4998,4.0,7.46,126.5,9.29,'1111122,1111122,1111122' 
TABS,ioos:station:wmo:42045:1,2013-04-02T16:00:00Z,26.2168,-96.4998,4.0,7.4,132.0,8.66,'1111122,1111122,1111122' 
TABS,ioos:station:wmo:42045:1,2013-04-02T16:30:00Z,26.2168,-96.4998,4.0,8.39,140.9,9.89,'1111122,1111122,1111122' 
TABS,ioos:station:wmo:42045:1,2013-04-02T17:00:00Z,26.2168,-96.4998,4.0,7.92,139.7,9.52,'1111122,1111122,1111122' 
TABS,ioos:station:wmo:42045:1,2013-04-02T17:30:00Z,26.2168,-96.4998,4.0,7.99,139.4,8.82,'1111122,1111122,1111122' 
TABS,ioos:station:wmo:42045:1,2013-04-02T18:00:00Z,26.2168,-96.4998,4.0,7.58,139.0,8.48,'1111122,1111122,1111122' 
TABS,ioos:station:wmo:42045:1,2013-04-02T18:30:00Z,26.2168,-96.4998,4.0,6.63,171.7,7.81,'1111122,1111122,1111122' 
TABS,ioos:station:wmo:42045:1,2013-04-02T19:00:00Z,26.2168,-96.4998,4.0,7.73,133.8,8.91,'1111122,1111122,1111122' 
TABS,ioos:station:wmo:42045:1,2013-04-02T19:30:00Z,26.2168,-96.4998,4.0,7.7,132.1,9.11,'1111122,1111122,1111122' 
TABS,ioos:station:wmo:42045:1,2013-04-02T20:00:00Z,26.2168,-96.4998,4.0,6.44,130.1,7.3,'1111122,1111122,1111122' 
TABS,ioos:station:wmo:42045:1,2013-04-02T20:30:00Z,26.2168,-96.4998,4.0,6.27,128.2,7.32,'1111122,1111122,1111122' 
TABS,ioos:station:wmo:42045:1,2013-04-02T21:00:00Z,26.2168,-96.4998,4.0,6.17,127.1,7.38,'1111122,1111122,1111122' 
TABS,ioos:station:wmo:42045:1,2013-04-02T21:30:00Z,26.2168,-96.4998,4.0,5.83,123.0,6.75,'1111122,1111122,1111122' 
TABS,ioos:station:wmo:42045:1,2013-04-02T22:00:00Z,26.2168,-96.4998,4.0,6.15,122.6,7.18,'1111122,1111122,1111122' 
TABS,ioos:station:wmo:42045:1,2013-04-02T22:30:00Z,26.2168,-96.4998,4.0,5.55,123.3,6.62,'1111122,1111122,1111122' 
TABS,ioos:station:wmo:42045:1,2013-04-02T23:00:00Z,26.2168,-96.4998,4.0,5.29,120.1,6.36,'1111122,1111122,1111122' 
TABS,ioos:station:wmo:42045:1,2013-04-02T23:30:00Z,26.2168,-96.4998,4.0,5.17,125.7,5.94,'1111122,1111122,1111122' 
TABS,ioos:station:wmo:42045:1,2013-04-03T00:00:00Z,26.2168,-96.4998,4.0,4.813533006,118.0028243,5.37,'11111222,11111222,11111222' 
TABS,ioos:station:wmo:42045:1,2013-04-03T00:30:00Z,26.2168,-96.4998,4.0,4.002499219,113.8756459,4.57,'11111222,11111222,11111222' 
TABS,ioos:station:wmo:42045:1,2013-04-03T01:00:00Z,26.2168,-96.4998,4.0,4.844512359,115.2959082,5.49,'11111222,11111222,11111222' 
TABS,ioos:station:wmo:42045:1,2013-04-03T01:30:00Z,26.2168,-96.4998,4.0,4.877140556,118.4045465,5.59,'11111222,11111222,11111222' 
TABS,ioos:station:wmo:42045:1,2013-04-03T02:00:00Z,26.2168,-96.4998,4.0,3.93005089,112.9118113,4.5,'11111222,11111222,11111222' 
TABS,ioos:station:wmo:42045:1,2013-04-03T02:30:00Z,26.2168,-96.4998,4.0,3.18284464,111.5677845,3.68,'11111222,11111222,11111222' 
TABS,ioos:station:wmo:42045:1,2013-04-03T03:00:00Z,26.2168,-96.4998,4.0,3.174728335,121.7379052,3.56,'11111222,11111222,11111222' 
TABS,ioos:station:wmo:42045:1,2013-04-03T03:30:00Z,26.2168,-96.4998,4.0,3.147205109,140.5443761,3.68,'11111222,11111222,11111222' 
TABS,ioos:station:wmo:42045:1,2013-04-03T04:00:00Z,26.2168,-96.4998,4.0,3.21263132,140.811282,3.61,'11111222,11111222,11111222' 
TABS,ioos:station:wmo:42045:1,2013-04-03T04:30:00Z,26.2168,-96.4998,4.0,2.821364918,134.8567179,3.25,'11111222,11111222,11111222' 
TABS,ioos:station:wmo:42045:1,2013-04-03T05:00:00Z,26.2168,-96.4998,4.0,1.822580588,141.6841642,2.27,'11111222,11111222,11111222' 
TABS,ioos:station:wmo:42045:1,2013-04-03T05:30:00Z,26.2168,-96.4998,4.0,2.679944029,134.8491402,3.22,'11111222,11111222,11111222' 
TABS,ioos:station:wmo:42045:1,2013-04-03T06:00:00Z,26.2168,-96.4998,4.0,4.007056276,144.4459939,4.83,'11111222,11111222,11111222' 
TABS,ioos:station:wmo:42045:1,2013-04-03T06:30:00Z,26.2168,-96.4998,4.0,4.776996965,154.4544184,5.74,'11111222,11111222,11111222' 
TABS,ioos:station:wmo:42045:1,2013-04-03T07:00:00Z,26.2168,-96.4998,4.0,2.282805292,168.8871959,3.52,'11111222,11111222,11111222' 
TABS,ioos:station:wmo:42045:1,2013-04-03T07:30:00Z,26.2168,-96.4998,4.0,1.012027668,281.9761044,1.31,'11111222,11111222,11111222' 
TABS,ioos:station:wmo:42045:1,2013-04-03T08:00:00Z,26.2168,-96.4998,4.0,1.653027525,139.6621779,2.56,'11111222,11111222,11111222' 
TABS,ioos:station:wmo:42045:1,2013-04-03T08:30:00Z,26.2168,-96.4998,4.0,1.247236946,15.8189465,3.54,'11111222,11111222,11111222' 
TABS,ioos:station:wmo:42045:1,2013-04-03T09:00:00Z,26.2168,-96.4998,4.0,1.828879438,346.7234235,2.59,'11111222,11111222,11111222' 
TABS,ioos:station:wmo:42045:1,2013-04-03T09:30:00Z,26.2168,-96.4998,4.0,1.54728795,20.42576654,1.98,'11111222,11111222,11111222' 
TABS,ioos:station:wmo:42045:1,2013-04-03T10:00:00Z,26.2168,-96.4998,4.0,2.722094782,11.22713706,2.99,'11111222,11111222,11111222' 
TABS,ioos:station:wmo:42045:1,2013-04-03T10:30:00Z,26.2168,-96.4998,4.0,2.76327704,11.26903153,3.23,'11111222,11111222,11111222' 
TABS,ioos:station:wmo:42045:1,2013-04-03T11:00:00Z,26.2168,-96.4998,4.0,3.771604433,22.28071635,4.43,'11111222,11111222,11111222' 
TABS,ioos:station:wmo:42045:1,2013-04-03T11:30:00Z,26.2168,-96.4998,4.0,4.010947519,15.76855255,5.41,'11111222,11111222,11111222' 
TABS,ioos:station:wmo:42045:1,2013-04-03T12:00:00Z,26.2168,-96.4998,4.0,9.878633509,58.57833529,12.4,'11111222,11111222,11111222' 
TABS,ioos:station:wmo:42045:1,2013-04-03T12:30:00Z,26.2168,-96.4998,4.0,7.208085738,59.02226287,9.82,'11111222,11111222,11111222' 
TABS,ioos:station:wmo:42045:1,2013-04-03T13:00:00Z,26.2168,-96.4998,4.0,7.175715992,70.88291514,8.83,'11111222,11111222,11111222' 
TABS,ioos:station:wmo:42045:1,2013-04-03T13:30:00Z,26.2168,-96.4998,4.0,7.745740765,79.66167609,9.46,'11111222,11111222,11111222' 
TABS,ioos:station:wmo:42045:1,2013-04-03T14:00:00Z,26.2168,-96.4998,4.0,7.179651802,79.97313127,9.4,'11111222,11111222,11111222' 
TABS,ioos:station:wmo:42045:1,2013-04-03T14:30:00Z,26.2168,-96.4998,4.0,5.845040633,57.50590834,7.59,'11111222,11111222,11111222' 
TABS,ioos:station:wmo:42045:1,2013-04-03T15:00:00Z,26.2168,-96.4998,4.0,5.811781138,48.90649156,7.45,'11111222,11111222,11111222' 
TABS,ioos:station:wmo:42045:1,2013-04-03T15:30:00Z,26.2168,-96.4998,4.0,6.813295825,78.22788741,8.41,'11111222,11111222,11111222' 
TABS,ioos:station:wmo:42045:1,2013-04-03T16:00:00Z,26.2168,-96.4998,4.0,6.393387209,78.72482375,7.89,'11111222,11111222,11111222' 
TABS,ioos:station:wmo:42045:1,2013-04-03T16:30:00Z,26.2168,-96.4998,4.0,6.29114457,29.41700751,8.5,'11111222,11111222,11111222' 
TABS,ioos:station:wmo:42045:1,2013-04-03T17:00:00Z,26.2168,-96.4998,4.0,5.882601465,17.51065206,7.42,'11111222,11111222,11111222' 
TABS,ioos:station:wmo:42045:1,2013-04-03T17:30:00Z,26.2168,-96.4998,4.0,5.831123391,356.4602386,7.52,'11111222,11111222,11111222' 
TABS,ioos:station:wmo:42045:1,2013-04-03T18:00:00Z,26.2168,-96.4998,4.0,6.129510584,349.6615245,7.8,'11111222,11111222,11111222' 
TABS,ioos:station:wmo:42045:1,2013-04-03T18:30:00Z,26.2168,-96.4998,4.0,6.320609148,4.627916257,8.27,'11111222,11111222,11111222' 
TABS,ioos:station:wmo:42045:1,2013-04-03T19:00:00Z,26.2168,-96.4998,4.0,6.724470239,5.803629394,8.88,'11111222,11111222,11111222' 
TABS,ioos:station:wmo:42045:1,2013-04-03T19:30:00Z,26.2168,-96.4998,4.0,7.00902989,335.7385554,9.79,'11111222,11111222,11111222' 
TABS,ioos:station:wmo:42045:1,2013-04-03T20:00:00Z,26.2168,-96.4998,4.0,7.223987818,325.0338415,9.72,'11111222,11111222,11111222' 
TABS,ioos:station:wmo:42045:1,2013-04-03T20:30:00Z,26.2168,-96.4998,4.0,6.987968231,338.6856531,11.06,'11111222,11111222,11111222' 
TABS,ioos:station:wmo:42045:1,2013-04-03T21:00:00Z,26.2168,-96.4998,4.0,6.51,359.9997895,9.52,'11111222,11144222,11111222' 
TABS,ioos:station:wmo:42045:1,2013-04-03T21:30:00Z,26.2168,-96.4998,4.0,6.813024292,354.3561537,10.17,'11111222,11111222,11111222' 
TABS,ioos:station:wmo:42045:1,2013-04-03T22:00:00Z,26.2168,-96.4998,4.0,6.73190909,353.6032193,10.22,'11111222,11111222,11111222' 
TABS,ioos:station:wmo:42045:1,2013-04-03T22:30:00Z,26.2168,-96.4998,4.0,6.600946902,356.699598,10.5,'11111222,11111222,11111222' 
TABS,ioos:station:wmo:42045:1,2013-04-03T23:00:00Z,26.2168,-96.4998,4.0,6.672166065,345.859443,9.95,'11111222,11111222,11111222' 
TABS,ioos:station:wmo:42045:1,2013-04-03T23:30:00Z,26.2168,-96.4998,4.0,6.713404501,16.70716931,9.29,'11111222,11111222,11111222' 
TABS,ioos:station:wmo:42045:1,2013-04-04T00:00:00Z,26.2168,-96.4998,4.0,6.283390804,3.741068311,9.68,'11111222,11111222,11111222' 
TABS,ioos:station:wmo:42045:1,2013-04-04T00:30:00Z,26.2168,-96.4998,4.0,6.571225152,18.5449851,9.52,'11111222,11111222,11111222' 
TABS,ioos:station:wmo:42045:1,2013-04-04T01:00:00Z,26.2168,-96.4998,4.0,6.835934464,30.99222211,9.96,'11111222,11111222,11111222' 
TABS,ioos:station:wmo:42045:1,2013-04-04T01:30:00Z,26.2168,-96.4998,4.0,6.553602063,16.30541785,9.76,'11111222,11111222,11111222' 
TABS,ioos:station:wmo:42045:1,2013-04-04T02:00:00Z,26.2168,-96.4998,4.0,6.544226463,13.25030486,9.97,'11111222,11111222,11111222' 
TABS,ioos:station:wmo:42045:1,2013-04-04T02:30:00Z,26.2168,-96.4998,4.0,6.550915966,13.86629866,9.11,'11111222,11111222,11111222' 
TABS,ioos:station:wmo:42045:1,2013-04-04T03:00:00Z,26.2168,-96.4998,4.0,6.427697877,22.69502665,9.35,'11111222,11111222,11111222' 
TABS,ioos:station:wmo:42045:1,2013-04-04T03:30:00Z,26.2168,-96.4998,4.0,6.598742304,8.277225269,9.68,'11111222,11111222,11111222' 
TABS,ioos:station:wmo:42045:1,2013-04-04T04:00:00Z,26.2168,-96.4998,4.0,5.360037313,345.9635789,9.77,'11111222,11111222,11111222' 
TABS,ioos:station:wmo:42045:1,2013-04-04T04:30:00Z,26.2168,-96.4998,4.0,5.044482134,339.3374433,10.25,'11111222,11111222,11111222' 
TABS,ioos:station:wmo:42045:1,2013-04-04T05:00:00Z,26.2168,-96.4998,4.0,5.727215728,344.9201903,9.93,'11111222,11111222,11111222' 
TABS,ioos:station:wmo:42045:1,2013-04-04T05:30:00Z,26.2168,-96.4998,4.0,5.727076043,349.4354697,9.46,'11111222,11111222,11111222' 
TABS,ioos:station:wmo:42045:1,2013-04-04T06:00:00Z,26.2168,-96.4998,4.0,5.697718842,339.0200854,9.31,'11111222,11111222,11111222' 
TABS,ioos:station:wmo:42045:1,2013-04-04T06:30:00Z,26.2168,-96.4998,4.0,5.845006416,352.1331007,10.28,'11111222,11111222,11111222' 
TABS,ioos:station:wmo:42045:1,2013-04-04T07:00:00Z,26.2168,-96.4998,4.0,6.030671604,0.854884938,8.55,'11111222,11111222,11111222' 
TABS,ioos:station:wmo:42045:1,2013-04-04T07:30:00Z,26.2168,-96.4998,4.0,6.072972913,347.5426434,8.33,'11111222,11111222,11111222' 
TABS,ioos:station:wmo:42045:1,2013-04-04T08:00:00Z,26.2168,-96.4998,4.0,5.839075269,342.8682435,8.6,'11111222,11111222,11111222' 
TABS,ioos:station:wmo:42045:1,2013-04-04T08:30:00Z,26.2168,-96.4998,4.0,6.103933158,354.924349,8.43,'11111222,11111222,11111222' 
TABS,ioos:station:wmo:42045:1,2013-04-04T09:00:00Z,26.2168,-96.4998,4.0,5.960486557,344.7278449,8.46,'11111222,11111222,11111222' 
TABS,ioos:station:wmo:42045:1,2013-04-04T09:30:00Z,26.2168,-96.4998,4.0,6.257930968,346.6963902,8.73,'11111222,11111222,11111222' 
TABS,ioos:station:wmo:42045:1,2013-04-04T10:00:00Z,26.2168,-96.4998,4.0,6.328633344,329.626121,8.63,'11111222,11111222,11111222' 
TABS,ioos:station:wmo:42045:1,2013-04-04T10:30:00Z,26.2168,-96.4998,4.0,6.527641228,327.5757968,9.73,'11111222,11111222,11111222' 
TABS,ioos:station:wmo:42045:1,2013-04-04T11:00:00Z,26.2168,-96.4998,4.0,6.951294843,314.3587699,10.13,'11111222,11111222,11111222' 
TABS,ioos:station:wmo:42045:1,2013-04-04T11:30:00Z,26.2168,-96.4998,4.0,6.673290043,320.1063674,9.44,'11111222,11111222,11111222' 
TABS,ioos:station:wmo:42045:1,2013-04-04T12:00:00Z,26.2168,-96.4998,4.0,7.075026502,299.4635591,9.77,'11111222,11111222,11111222' 
TABS,ioos:station:wmo:42045:1,2013-04-04T12:30:00Z,26.2168,-96.4998,4.0,7.729016755,294.3764116,10.87,'11111222,11111222,11111222' 
TABS,ioos:station:wmo:42045:1,2013-04-04T13:00:00Z,26.2168,-96.4998,4.0,6.937413063,304.6062744,9.76,'11111222,11111222,11111222' 
TABS,ioos:station:wmo:42045:1,2013-04-04T13:30:00Z,26.2168,-96.4998,4.0,7.366009775,306.7764708,10.45,'11111222,11111222,11111222' 
TABS,ioos:station:wmo:42045:1,2013-04-04T14:00:00Z,26.2168,-96.4998,4.0,6.82402374,329.3384923,9.81,'11111222,11111222,11111222' 
TABS,ioos:station:wmo:42045:1,2013-04-04T14:30:00Z,26.2168,-96.4998,4.0,6.332021794,331.4110614,9.83,'11111222,11111222,11111222' 
TABS,ioos:station:wmo:42045:1,2013-04-04T15:00:00Z,26.2168,-96.4998,4.0,6.000841608,343.0445161,10.22,'11111222,11111222,11111222' 
TABS,ioos:station:wmo:42045:1,2013-04-04T15:30:00Z,26.2168,-96.4998,4.0,6.049958678,338.2687756,9.34,'11111222,11111222,11111222' 
TABS,ioos:station:wmo:42045:1,2013-04-04T16:00:00Z,26.2168,-96.4998,4.0,6.457468544,329.7817437,9.55,'11111222,11111222,11111222' 
TABS,ioos:station:wmo:42045:1,2013-04-04T16:30:00Z,26.2168,-96.4998,4.0,5.89185879,330.737456,8.08,'11111222,11111222,11111222' 
TABS,ioos:station:wmo:42045:1,2013-04-04T17:00:00Z,26.2168,-96.4998,4.0,5.705479822,320.6186207,8.21,'11111222,11111222,11111222' 
TABS,ioos:station:wmo:42045:1,2013-04-04T17:30:00Z,26.2168,-96.4998,4.0,6.874198135,297.2732271,9.09,'11111222,11111222,11111222' 
TABS,ioos:station:wmo:42045:1,2013-04-04T18:00:00Z,26.2168,-96.4998,4.0,6.858870169,298.2837165,9.18,'11111222,11111222,11111222' 
TABS,ioos:station:wmo:42045:1,2013-04-04T18:30:00Z,26.2168,-96.4998,4.0,7.099753517,289.0729155,9.44,'11111222,11111222,11111222' 
TABS,ioos:station:wmo:42045:1,2013-04-04T19:00:00Z,26.2168,-96.4998,4.0,6.434298719,307.4219128,8.8,'11111222,11111222,11111222' 
TABS,ioos:station:wmo:42045:1,2013-04-04T19:30:00Z,26.2168,-96.4998,4.0,5.996907536,317.9061515,8.47,'11111222,11111222,11111222' 
TABS,ioos:station:wmo:42045:1,2013-04-04T20:00:00Z,26.2168,-96.4998,4.0,5.844527355,325.3853191,7.79,'11111222,11111222,11111222' 
TABS,ioos:station:wmo:42045:1,2013-04-04T20:30:00Z,26.2168,-96.4998,4.0,5.666259789,333.7061275,7.72,'11111222,11111222,11111222' 
TABS,ioos:station:wmo:42045:1,2013-04-04T21:00:00Z,26.2168,-96.4998,4.0,5.232093271,340.1102889,7.64,'11111222,11111222,11111222' 
TABS,ioos:station:wmo:42045:1,2013-04-04T21:30:00Z,26.2168,-96.4998,4.0,4.771718768,348.1482639,6.83,'11111222,11111222,11111222' 
TABS,ioos:station:wmo:42045:1,2013-04-04T22:00:00Z,26.2168,-96.4998,4.0,5.102019208,356.0662022,6.64,'11111222,11111222,11111222' 
TABS,ioos:station:wmo:42045:1,2013-04-04T22:30:00Z,26.2168,-96.4998,4.0,4.497554891,7.409210947,6.22,'11111222,11111222,11111222' 
TABS,ioos:station:wmo:42045:1,2013-04-04T23:00:00Z,26.2168,-96.4998,4.0,4.763402146,14.09434604,6.24,'11111222,11111222,11111222' 
TABS,ioos:station:wmo:42045:1,2013-04-04T23:30:00Z,26.2168,-96.4998,4.0,4.899653049,15.99333624,6.39,'11111222,11111222,11111222' 
TABS,ioos:station:wmo:42045:1,2013-04-05T00:00:00Z,26.2168,-96.4998,4.0,5.067247774,33.40753601,6.63,'11111222,11111222,11111222' 
TABS,ioos:station:wmo:42045:1,2013-04-05T00:30:00Z,26.2168,-96.4998,4.0,5.619412781,35.58479477,7.82,'11111222,11111222,11111222' 
TABS,ioos:station:wmo:42045:1,2013-04-05T01:00:00Z,26.2168,-96.4998,4.0,6.301785461,35.50567663,8.32,'11111222,11111222,11111222' 
TABS,ioos:station:wmo:42045:1,2013-04-05T01:30:00Z,26.2168,-96.4998,4.0,6.822939249,33.34041892,9.13,'11111222,11111222,11111222' 
TABS,ioos:station:wmo:42045:1,2013-04-05T02:00:00Z,26.2168,-96.4998,4.0,6.947114509,35.15388497,9.27,'11111222,11111222,11111222' 
TABS,ioos:station:wmo:42045:1,2013-04-05T02:30:00Z,26.2168,-96.4998,4.0,6.773573651,38.10466721,8.53,'11111222,11111222,11111222' 
TABS,ioos:station:wmo:42045:1,2013-04-05T03:00:00Z,26.2168,-96.4998,4.0,6.484358102,45.43704716,8.22,'11111222,11111222,11111222' 
TABS,ioos:station:wmo:42045:1,2013-04-05T03:30:00Z,26.2168,-96.4998,4.0,6.774142012,44.76045545,8.68,'11111222,11111222,11111222' 
TABS,ioos:station:wmo:42045:1,2013-04-05T04:00:00Z,26.2168,-96.4998,4.0,6.436932499,48.08524211,9.0,'11111222,11111222,11111222' 
TABS,ioos:station:wmo:42045:1,2013-04-05T04:30:00Z,26.2168,-96.4998,4.0,6.782757551,50.98366448,8.67,'11111222,11111222,11111222' 
TABS,ioos:station:wmo:42045:1,2013-04-05T05:00:00Z,26.2168,-96.4998,4.0,6.675043071,54.14268072,8.34,'11111222,11111222,11111222' 
TABS,ioos:station:wmo:42045:1,2013-04-05T05:30:00Z,26.2168,-96.4998,4.0,6.319881328,42.62708967,7.73,'11111222,11111222,11111222' 
TABS,ioos:station:wmo:42045:1,2013-04-05T06:00:00Z,26.2168,-96.4998,4.0,5.986192446,37.32902831,8.2,'11111222,11111222,11111222' 
TABS,ioos:station:wmo:42045:1,2013-04-05T06:30:00Z,26.2168,-96.4998,4.0,5.296810361,32.03949593,6.8,'11111222,11111222,11111222' 
TABS,ioos:station:wmo:42045:1,2013-04-05T07:00:00Z,26.2168,-96.4998,4.0,5.062489506,26.76723587,6.72,'11111222,11111222,11111222' 
TABS,ioos:station:wmo:42045:1,2013-04-05T07:30:00Z,26.2168,-96.4998,4.0,4.671637828,16.02938162,6.74,'11111222,11111222,11111222' 
TABS,ioos:station:wmo:42045:1,2013-04-05T08:00:00Z,26.2168,-96.4998,4.0,4.788454866,5.031711997,6.38,'11111222,11111222,11111222' 
TABS,ioos:station:wmo:42045:1,2013-04-05T08:30:00Z,26.2168,-96.4998,4.0,4.852813617,5.557643955,6.59,'11111222,11111222,11111222' 
TABS,ioos:station:wmo:42045:1,2013-04-05T09:00:00Z,26.2168,-96.4998,4.0,4.905527495,4.559728966,6.67,'11111222,11111222,11111222' 